Location: Peebles
(55.6412°N, 3.1714°W)
Time: 16:48:45
(UTC+01:00)

USA 238 DEB - Pass Details

Date: 19 January 2022
Orbit: 969 x 1243 km, 63.4° (Epoch: 04 May)

Event Time Altitude Azimuth Distance (km) Brightness Sun altitude
Rises 18:57:16 0° 236° (SW) 3,712 7.6 -21.3°
Reaches altitude 10° 18:59:47 10° 238° (WSW) 2,791 6.8 -21.6°
Maximum altitude 19:06:23 79° 325° (NW) 1,082 3.7 -22.6°
Enters shadow 19:09:41 34° 47° (NE) 1,708 4.4 -23.0°
